GW5043 Weather Reports


time (UTC)temp
F
wind
direction
speed
knots
gust
knots
rain 1hr
in
rain 24hr
in
rain mn
in
humidity
%
barometer
mb
20260509150018 63 253 2.6 7.0 0.00 0.00 0.00 63 1003.7
20260509145018 63 187 1.7 6.1 0.00 0.00 0.00 64 1003.6
20260509144015 62 276 1.7 5.2 0.00 0.00 0.00 67 1003.6
20260509143015 60 150 1.7 5.2 0.00 0.00 0.00 69 1003.6
20260509142019 60 206 2.6 6.1 0.00 0.00 0.00 72 1003.5
20260509141039 59 214 1.7 5.2 0.00 0.00 0.00 73 1003.5
20260509140019 59 226 2.6 5.2 0.00 0.00 0.00 75 1003.5
20260509135059 59 201 1.7 4.3 0.00 0.00 0.00 76 1003.3
20260509134016 58 225 2.6 6.1 0.00 0.00 0.00 77 1003.3
20260509133036 58 236 2.6 6.1 0.00 0.00 0.00 77 1003.5
20260509132017 58 273 2.6 5.2 0.00 0.00 0.00 78 1003.6
20260509131017 58 198 2.6 8.7 0.00 0.00 0.00 78 1003.6
20260509130020 57 258 1.7 5.2 0.00 0.00 0.00 79 1003.5
20260509125017 57 236 1.7 6.1 0.00 0.00 0.00 79 1003.5
20260509124017 56 213 1.7 5.2 0.00 0.00 0.00 81 1003.5
20260509123020 55 162 1.7 3.5 0.00 0.00 0.00 83 1003.5
20260509122021 55 216 2.6 4.3 0.00 0.00 0.00 84 1003.6
20260509121021 55 253 1.7 3.5 0.00 0.00 0.00 86 1003.6
20260509120021 54 175 1.7 3.5 0.00 0.00 0.00 87 1003.5
20260509115021 54 204 2.6 5.2 0.00 0.00 0.00 89 1003.4
20260509114021 54 227 1.7 2.6 0.00 0.00 0.00 89 1003.3
20260509113021 54 210 1.7 4.3 0.00 0.00 0.00 89 1003.2
20260509112022 54 225 1.7 3.5 0.00 0.00 0.00 89 1003.3
20260509111022 54 282 2.6 4.3 0.00 0.00 0.00 88 1003.2
20260509105022 54 247 1.7 2.6 0.00 0.00 0.00 88 1003.0
20260509104022 54 222 1.7 3.5 0.00 0.00 0.00 87 1002.9
20260509103022 54 250 1.7 3.5 0.00 0.00 0.00 87 1002.9
20260509102103 54 225 1.7 2.6 0.00 0.00 0.00 88 1002.9
20260509101023 54 152 1.7 4.3 0.00 0.00 0.00 88 1003.0
20260509100023 54 195 1.7 3.5 0.00 0.00 0.00 88 1003.1
20260509095023 54 200 1.7 3.5 0.00 0.00 0.00 88 1003.3
20260509094023 54 237 1.7 3.5 0.00 0.00 0.00 88 1003.5
20260509093023 54 206 1.7 2.6 0.00 0.00 0.00 88 1003.6
20260509092023 54 174 1.7 2.6 0.00 0.00 0.00 88 1003.5
20260509091023 54 231 1.7 3.5 0.00 0.00 0.00 88 1003.6
20260509090044 54 199 1.7 2.6 0.00 0.00 0.00 88 1003.7
20260509085044 54 215 1.7 2.6 0.00 0.00 0.00 88 1003.8
20260509084024 54 206 2.6 4.3 0.00 0.00 0.00 88 1003.8
20260509083018 54 236 1.7 5.2 0.00 0.00 0.00 87 1003.8
20260509082025 54 222 1.7 3.5 0.00 0.00 0.00 87 1003.7
20260509081019 54 205 1.7 5.2 0.00 0.00 0.00 87 1003.7
20260509080019 54 231 1.7 3.5 0.00 0.00 0.00 86 1003.7
20260509075017 54 219 1.7 4.3 0.00 0.00 0.00 86 1003.8
20260509074036 54 209 1.7 2.6 0.00 0.00 0.00 85 1003.9
20260509073017 55 218 1.7 4.3 0.00 0.00 0.00 85 1004.0
20260509072017 55 237 1.7 4.3 0.00 0.00 0.00 85 1004.2
20260509071017 55 233 1.7 2.6 0.00 0.00 0.00 85 1004.3
20260509070017 55 233 1.7 3.5 0.00 0.00 0.00 84 1004.5
20260509065037 55 236 1.7 5.2 0.00 0.00 0.00 84 1004.5
20260509064018 55 221 1.7 3.5 0.00 0.00 0.00 84 1004.6
20260509063018 56 242 1.7 4.3 0.00 0.00 0.00 84 1004.6
20260509062018 56 223 1.7 5.2 0.00 0.00 0.00 83 1004.7
20260509061038 56 203 1.7 3.5 0.00 0.00 0.00 83 1004.9
20260509060018 56 211 1.7 5.2 0.00 0.00 0.00 83 1005.0
20260509055018 56 190 1.7 4.3 0.00 0.00 0.00 82 1005.0
20260509054018 56 231 1.7 3.5 0.00 0.00 0.00 82 1005.0
20260509053019 57 240 1.7 4.3 0.00 0.00 0.00 81 1005.0
20260509052039 57 261 1.7 3.5 0.00 0.00 0.00 81 1004.9
20260509051016 57 200 1.7 5.2 0.00 0.00 0.00 80 1005.0
20260509050016 57 212 1.7 4.3 0.00 0.00 0.00 79 1005.0
20260509045036 57 186 1.7 3.5 0.00 0.00 0.00 79 1004.9
20260509044020 57 198 1.7 3.5 0.00 0.00 0.00 79 1005.2
20260509043020 57 211 1.7 3.5 0.00 0.00 0.00 78 1005.2
20260509042017 57 248 1.7 3.5 0.00 0.00 0.00 78 1005.1
20260509041017 57 139 0.9 2.6 0.00 0.00 0.00 77 1005.0
20260509040017 56 201 1.7 3.5 0.00 0.00 0.00 78 1005.1
20260509035017 56 167 0.9 3.5 0.00 0.00 0.00 77 1005.3
20260509034017 54 193 1.7 4.3 0.00 0.00 0.00 79 1005.3
20260509033018 53 133 0.9 2.6 0.00 0.00 0.00 80 1005.3
20260509032018 52 89 0.9 2.6 0.00 0.00 0.00 81 1005.3
20260509031018 52 43 0.9 2.6 0.00 0.00 0.00 81 1005.4
20260509030018 52 88 0.9 1.7 0.00 0.00 0.00 80 1005.4
20260509025018 53 57 0.9 1.7 0.00 0.00 0.00 79 1005.5
20260509024018 53 71 1.7 2.6 0.00 0.00 0.00 78 1005.6
20260509023039 53 77 1.7 1.7 0.00 0.00 0.00 78 1005.6
20260509022016 53 73 1.7 2.6 0.00 0.00 0.00 77 1005.7
20260509021019 53 77 1.7 2.6 0.00 0.00 0.00 77 1005.7
20260509020019 53 81 1.7 2.6 0.00 0.00 0.00 76 1005.8
20260509015019 53 85 1.7 2.6 0.00 0.00 0.00 76 1005.7
20260509014040 53 77 1.7 2.6 0.00 0.00 0.00 75 1005.7
20260509013016 53 83 0.9 2.6 0.00 0.00 0.00 74 1005.7
20260509012016 53 78 1.7 2.6 0.00 0.00 0.00 72 1005.6
20260509011017 54 68 0.9 2.6 0.00 0.00 0.00 70 1005.6
20260509010017 54 82 1.7 3.5 0.00 0.00 0.00 68 1005.7
20260509005017 54 74 1.7 3.5 0.00 0.00 0.00 66 1005.7
20260509004017 55 90 1.7 4.3 0.00 0.00 0.00 64 1005.6
20260509003017 55 75 1.7 2.6 0.00 0.00 0.00 62 1005.7
20260509002138 56 85 1.7 3.5 0.00 0.00 0.00 60 1005.8
20260509001018 56 71 1.7 2.6 0.00 0.00 0.00 59 1005.8
20260509000018 57 71 1.7 4.3 0.00 0.00 0.00 57 1005.8
20260508235058 58 69 1.7 3.5 0.00 0.00 0.00 55 1006.0
20260508234018 59 78 2.6 5.2 0.00 0.00 0.00 52 1006.0
20260508233018 60 81 2.6 6.1 0.00 0.00 0.00 52 1006.0
20260508232019 61 77 2.6 7.0 0.00 0.00 0.00 50 1006.1
20260508231018 62 78 1.7 4.3 0.00 0.00 0.00 49 1006.2
20260508230019 62 75 1.7 6.1 0.00 0.00 0.00 48 1006.2
20260508225016 61 72 1.7 5.2 0.00 0.00 0.00 47 1006.3
20260508224016 61 80 2.6 5.2 0.00 0.00 0.00 47 1006.3
20260508223017 59 74 2.6 7.0 0.00 0.00 0.00 49 1006.3
20260508222019 59 83 2.6 5.2 0.00 0.00 0.00 52 1006.3
20260508221020 59 91 1.7 5.2 0.00 0.00 0.00 56 1006.4
20260508220017 59 80 2.6 7.8 0.00 0.00 0.00 56 1006.5
20260508215017 59 76 2.6 7.0 0.00 0.00 0.00 58 1006.6
20260508214017 60 76 2.6 7.8 0.00 0.00 0.00 53 1006.5
20260508213038 61 78 3.5 7.8 0.00 0.03 0.00 52 1006.7
20260508212017 61 90 1.7 5.2 0.00 0.05 0.00 54 1006.7
20260508211018 63 89 2.6 5.2 0.00 0.05 0.00 52 1006.7
20260508210018 65 82 2.6 7.0 0.00 0.06 0.00 49 1006.7
20260508205018 64 68 2.6 9.6 0.00 0.07 0.00 50 1006.9
20260508204018 62 80 3.5 7.8 0.00 0.07 0.00 53 1007.0
20260508203038 64 76 3.5 8.7 0.00 0.07 0.00 52 1007.1
20260508202036 64 66 2.6 7.8 0.00 0.07 0.00 52 1007.3
20260508201036 63 81 2.6 7.8 0.00 0.07 0.00 53 1007.5
20260508200019 61 70 2.6 7.0 0.00 0.07 0.00 56 1007.7
20260508195019 62 76 3.5 8.7 0.00 0.07 0.00 55 1007.8
20260508194059 64 71 2.6 16.5 0.00 0.07 0.00 51 1007.9
20260508193016 63 87 2.6 7.8 0.00 0.07 0.00 52 1007.9
20260508192017 62 73 2.6 7.0 0.00 0.07 0.00 54 1008.0
20260508191017 62 78 4.3 10.4 0.00 0.07 0.00 55 1008.1
20260508190017 62 74 3.5 8.7 0.00 0.07 0.00 56 1008.3
20260508185020 62 69 3.5 8.7 0.00 0.07 0.00 58 1008.5
20260508184017 62 78 3.5 8.7 0.00 0.07 0.00 57 1008.6
20260508183017 63 59 4.3 10.4 0.00 0.07 0.00 53 1008.7
20260508182018 64 44 3.5 10.4 0.00 0.07 0.00 50 1008.7
20260508181018 64 74 2.6 8.7 0.00 0.07 0.00 52 1008.8
20260508180018 64 101 2.6 16.5 0.00 0.07 0.00 55 1008.9
20260508175038 64 79 2.6 7.0 0.00 0.07 0.00 59 1009.2
20260508174018 62 80 3.5 8.7 0.00 0.07 0.00 58 1009.3
20260508173038 61 83 2.6 7.0 0.00 0.07 0.00 65 1009.5
20260508172018 60 74 3.5 7.8 0.00 0.07 0.00 67 1009.6
20260508171019 59 91 3.5 8.7 0.00 0.07 0.00 69 1009.8
20260508170019 60 73 3.5 7.8 0.00 0.07 0.00 67 1009.8
20260508165019 60 80 2.6 7.8 0.00 0.07 0.00 65 1010.0
20260508164056 60 75 3.5 8.7 0.00 0.07 0.00 66 1010.2
20260508163036 60 85 2.6 8.7 0.00 0.07 0.00 65 1010.3
20260508162016 60 83 2.6 8.7 0.00 0.07 0.00 65 1010.4
20260508161019 59 87 2.6 6.1 0.00 0.07 0.00 67 1010.4
20260508160020 59 73 3.5 8.7 0.00 0.07 0.00 67 1010.4
20260508155017 58 65 2.6 7.8 0.00 0.07 0.00 69 1010.6
20260508154017 58 77 3.5 11.3 0.00 0.07 0.00 69 1010.6
20260508153017 57 77 3.5 8.7 0.00 0.07 0.00 72 1010.6
20260508152017 58 68 3.5 7.0 0.00 0.07 0.00 70 1010.7
20260508151018 58 79 2.6 6.1 0.00 0.07 0.00 69 1010.8